Rockford, IL

1:48 PM CDT on March 28, 2017 (GMT -0500)
Greater Rockford

Weather History for KRFD - October, 2013

Change the Weather History Date:

Saturday, October 26, 2013

  Actual Average Record
Temperature  
Mean Temperature 44 °F 48 °F  
Max Temperature 55 °F 59 °F 83 °F (1927)
Min Temperature 32 °F 38 °F 18 °F (1962)
Degree Days  
Heating Degree Days 21 17  
Month to date heating degree days 332 331  
Since 1 July heating degree days 414 462  
Cooling Degree Days 0 0  
Month to date cooling degree days 16 8  
Year to date cooling degree days 890 819  
Moisture  
Dew Point 28 °F    
Average Humidity 60    
Maximum Humidity 82    
Minimum Humidity 38    
Precipitation  
Precipitation 0.00 in 0.08 in 1.33 in (1917)
Month to date precipitation 1.81 2.23  
Year to date precipitation 35.42 31.24  
Snow  
Snow 0.00 in 0.00 in 1.70 in (1967)
Month to date snowfall T 0.1  
Since 1 July snowfall T 0.1  
Since 1 September snowfall T 0.1  
Snow Depth 0.00 in    
Sea Level Pressure  
Sea Level Pressure 29.99 in    
Wind  
Wind Speed 12 mph (WNW)    
Max Wind Speed 25 mph    
Max Gust Speed 32 mph    
Visibility 10 miles    
Events      
T = Trace of Precipitation, MM = Missing Value Source: NWS Daily Summary

Daily Weather History Graph

Daily Weather History Graph

Search for Another Location

Airport or City:

Trip Planner

Search our weather history database for the weather conditions in past years. The results will help you decide how hot, cold, wet, or windy it might be!

Date:

Astronomy

Oct. 26, 2013 Rise Set
Actual Time 7:22 AM CDT 5:57 PM CDT
Civil Twilight 6:53 AM CDT 6:26 PM CDT
Nautical Twilight 6:20 AM CDT 6:59 PM CDT
Astronomical Twilight 5:48 AM CDT 7:31 PM CDT
Moon No Moon Rise 1:39 PM CDT (10/26)
Length of Visible Light 11h 32m
Length of Day
10h 35m
Waning Gibbous, 53% of the Moon is Illuminated
Oct 26
Waning Gibbous
Oct 26
Last Quarter
Nov 3
New
Nov 9
First Quarter
Nov 17
Full

Hourly Weather History & Observations

Time (CDT) Temp. Windchill Dew Point Humidity Pressure Visibility Wind Dir Wind Speed Gust Speed Precip Events Conditions
12:54 AM 45.0 °F 37.4 °F 25.0 °F 46% 30.02 in 10.0 mi SW 18.4 mph 27.6 mph N/A   Partly Cloudy
1:54 AM 44.1 °F 37.1 °F 25.0 °F 47% 29.99 in 10.0 mi SSW 15.0 mph 24.2 mph N/A   Partly Cloudy
2:54 AM 43.0 °F 35.7 °F 26.1 °F 51% 29.93 in 10.0 mi SSW 15.0 mph - N/A   Clear
3:54 AM 46.9 °F - 26.1 °F 44% 29.91 in 10.0 mi WSW 16.1 mph 27.6 mph N/A   Overcast
4:54 AM 45.0 °F 37.9 °F 26.1 °F 48% 29.89 in 10.0 mi SW 16.1 mph 24.2 mph N/A   Scattered Clouds
5:54 AM 45.0 °F 37.9 °F 27.0 °F 49% 29.89 in 10.0 mi SW 16.1 mph 21.9 mph N/A   Overcast
6:54 AM 45.0 °F 39.3 °F 28.0 °F 52% 29.88 in 10.0 mi WSW 11.5 mph 20.7 mph N/A   Overcast
7:54 AM 44.1 °F 37.4 °F 28.9 °F 55% 29.88 in 10.0 mi WSW 13.8 mph 18.4 mph N/A   Mostly Cloudy
8:54 AM 45.0 °F 38.5 °F 30.0 °F 56% 29.90 in 10.0 mi West 13.8 mph - N/A   Mostly Cloudy
9:54 AM 46.0 °F 39.0 °F 33.1 °F 61% 29.90 in 10.0 mi WNW 17.3 mph - N/A   Mostly Cloudy
10:54 AM 50.0 °F - 34.0 °F 54% 29.92 in 10.0 mi NW 19.6 mph 26.5 mph N/A   Mostly Cloudy
11:54 AM 52.0 °F - 32.0 °F 47% 29.94 in 10.0 mi NW 19.6 mph 28.8 mph N/A   Mostly Cloudy
12:54 PM 54.0 °F - 30.9 °F 41% 29.95 in 10.0 mi NNW 18.4 mph - N/A   Mostly Cloudy
1:54 PM 50.0 °F - 30.0 °F 46% 29.97 in 10.0 mi NW 17.3 mph 26.5 mph N/A   Mostly Cloudy
2:54 PM 54.0 °F - 28.0 °F 37% 29.99 in 10.0 mi NW 17.3 mph 23.0 mph N/A   Mostly Cloudy
3:54 PM 51.1 °F - 28.0 °F 41% 30.02 in 10.0 mi North 15.0 mph - N/A   Mostly Cloudy
4:54 PM 51.1 °F - 27.0 °F 39% 30.04 in 10.0 mi North 13.8 mph 25.3 mph N/A   Mostly Cloudy
5:54 PM 46.9 °F - 26.1 °F 44% 30.06 in 10.0 mi NNW 9.2 mph - N/A   Scattered Clouds
6:54 PM 43.0 °F 38.8 °F 27.0 °F 53% 30.08 in 10.0 mi NW 6.9 mph - N/A   Scattered Clouds
7:54 PM 39.9 °F 35.8 °F 27.0 °F 60% 30.10 in 10.0 mi NW 5.8 mph - N/A   Partly Cloudy
8:54 PM 39.0 °F 34.8 °F 27.0 °F 62% 30.11 in 10.0 mi NW 5.8 mph - N/A   Clear
9:54 PM 36.0 °F - 27.0 °F 70% 30.12 in 10.0 mi Calm Calm - N/A   Scattered Clouds
10:54 PM 32.0 °F 26.4 °F 27.0 °F 82% 30.11 in 10.0 mi South 5.8 mph - N/A   Mostly Cloudy
11:54 PM 33.1 °F - 28.0 °F 82% 30.12 in 10.0 mi Calm Calm - N/A   Overcast